TLV R/B

Satellite information

Favourite Embed

Satellite Type and Status

ROCKET BODYIN ORBIT

Key statistics

Satellite TLV R/B at a glance.

Uptime

696

Days in orbit

Revolutions

≈ 15.2

Per day

Orbit

LEO

Low Earth Orbit

Inclination

46.9

Latest

Satellite identification and parameters

Extended collection of information and parameters for TLV R/B.

Object identification

Identified? True

Debris? False

Object name: TLV R/B

International designator: 2023-188B

Object number (NORAD): 58501

Object ID (CCSDS): 58501

Country: SOUTH KOREA (SKOR)

Current information (Y/N): Y

RCS size: LARGE

Orbital parameters

Period: 94.442 minutes

Inclination: 46.9183 deg

SMA: 6869.695 km

Apoapsis: 576.941 km

Periapsis: 406.18 km

RAAN: 121.741 deg

Eccentricy: 0.01242855

Argument of periapsis: 281.9225 deg

Mean anomaly: 76.7775 deg

Mean motion: 15.24742687 rev/day

Mean motion (dot): 0.00009192 rev/day2

B* drag term: 0.00030378461 1/REarth

Two-line elements (TLE)

Creation date: Oct. 30, 2025, 3:32 a.m.

Reference frame: TEME

Reference center: EARTH

Epoch: Oct. 29, 2025, 6:51 p.m. UTC

TLE line 0: 0 TLV R/B

TLE line 1: 1 58501U 23188B 25302.78579373 .00009192 00000-0 30378-3 0 9997

TLE line 2: 2 58501 46.9183 121.7410 0124286 281.9225 76.7775 15.24742687105595

Live tracking on map

Real-time ground track for satellite TLV R/B.

In-orbit conjunctions

A list of the most updated potential collisions computed for object TLV R/B.

Target Orbit TCA Probability of collision Miss distance Type
COSMOS 1743 LEO 2025-08-28 15:29:45 0.00125799 340.0 (m) PAYLOAD

Associated space launch

Note: Launch vehicle name is provisional. Prototype small synthetic-aperture radar (SAR) satellite built by Hanhwa Aerospace on a planar satellite bus. First orbital test launch of the South Korean military small satellite launch vehicle after 2 sub-orbital tests of individual stages on 30 March and 30 December 2022. Does not include planned 2nd stage of the full LV.

TLV R/B was lifted into orbit during the mission ‘South Korean ADD Solid-Fuel SLV (3 stage) | S-STEP’, on board a South Korean ADD Solid-Fuel SLV (3 stage) space rocket.

The launch took place on Dec. 4, 2023, 5 a.m. from ADD Offshore launch platform.

For more information about the launch, click the button.

Launch to space South Korean ADD Solid-Fuel SLV (3 stage) | S-STEP
South Korean ADD Solid-Fuel SLV (3 stage) | S-STEP

Agency: N/A

Status: Launch Successful

Launch date: Dec. 4, 2023, 5 a.m. UTC

Rocket: South Korean ADD Solid-Fuel SLV (3 stage)

Launch pad: ADD Offshore launch platform

Location: Sea Launch

...

Latest news about this satellite

News about space launch
South Korea Debuts New Small Launch Vehicle

South Korea has successfully launched a new small launch vehicle from a floating platform near Jeju, South Korea on December 4th, 2023. The Hanhwa Defense-built launch vehicle known only as “TLV” placed a small satellite into a 650 kilometer orbit around ...


Newsletter sign-up

Weekly statistics, charts and insights to help you stay on top of the space industry.